This demonstration page uses our WeatherBlox Daily Observations layout. Learn more.

Left ArrowRight Arrow

40.92945, -100.16068

Hourly Observations for December 10, 2020

Temp ( °F °C ) Dew Point ( °F °C ) Humidity (%) Winds ( mph kmh ) Pressure ( in mb ) Visibility ( mi km ) Precip ( " mm )
12:15 am 00:15 Clear 42 5.7 23 -5.1 46 46 S 6 9 29.94 1014 10 16.0934 0 0
12:35 am 00:35 Clear 41 5 23 -5.2 48 48 SSE 6 9 29.95 1014 10 16.0934 0 0
12:55 am 00:55 Clear 39 3.9 23 -5.1 52 52 SSE 6 9 29.95 1014 10 16.0934 0 0
1:15 am 01:15 Clear 38 3.5 22 -5.8 51 51 S 5 7 29.95 1014 10 16.0934 0 0
1:35 am 01:35 Clear 38 3.4 22 -5.8 51 51 Calm 29.95 1014 10 16.0934 0 0
1:55 am 01:55 Clear 30 -0.9 19 -7.5 61 61 Calm 29.99 1015 10 16.0934 0 0
2:15 am 02:15 Clear 27 -2.8 19 -7.3 71 71 Calm 30 1016 10 16.0934 0 0
2:35 am 02:35 Clear 25 -3.8 18 -8 73 73 Calm 30.01 1016 10 16.0934 0 0
2:55 am 02:55 Clear 26 -3.6 18 -7.9 72 72 Calm 30.01 1016 10 16.0934 0 0
3:15 am 03:15 Clear 27 -3 18 -7.8 70 70 SSW 3 6 30 1016 10 16.0934 0 0
3:35 am 03:35 Clear 24 -4.7 16 -9 72 72 SSW 3 6 30.01 1016 10 16.0934 0 0
3:55 am 03:55 Clear 22 -5.3 16 -8.9 76 76 Calm 30.01 1016 10 16.0934 0 0
4:15 am 04:15 Clear 24 -4.7 16 -9 72 72 W 5 7 30.01 1016 10 16.0934 0 0
4:35 am 04:35 Clear 24 -4.6 18 -8 77 77 NW 10 17 30.01 1016 10 16.0934 0 0
4:55 am 04:55 Clear 23 -5 16 -8.7 76 76 WNW 10 17 30.03 1017 10 16.0934 0 0
5:15 am 05:15 Clear 26 -3.1 18 -7.9 70 70 WNW 13 20 30.01 1016 10 16.0934 0 0
5:35 am 05:35 Clear 27 -2.9 18 -7.7 70 70 WNW 9 15 30.02 1016 10 16.0934 0 0
5:55 am 05:55 Clear 26 -3.5 18 -7.7 73 73 WNW 9 15 30.02 1017 10 16.0934 0 0
6:15 am 06:15 Clear 27 -2.7 19 -7.1 72 72 WNW 7 11 30.02 1017 10 16.0934 0 0
6:35 am 06:35 Clear 26 -3.3 19 -7.5 73 73 WNW 10 17 30.03 1017 10 16.0934 0 0
6:55 am 06:55 Clear 26 -3.2 19 -7.5 72 72 W 8 13 30.04 1017 10 16.0934 0 0
7:15 am 07:15 Clear 26 -3.1 19 -7.3 73 73 WNW 12 19 30.04 1017 10 16.0934 0 0
7:35 am 07:35 Clear 28 -2.1 20 -6.5 72 72 WNW 12 19 30.04 1017 10 16.0934 0 0
7:55 am 07:55 Sunny 29 -1.6 21 -6 72 72 WNW 9 15 30.04 1017 10 16.0934 0 0
8:15 am 08:15 Sunny 32 0.2 24 -4.2 73 73 NNW 9 15 30.03 1017 10 16.0934 0 0
8:35 am 08:35 Sunny 39 3.8 28 -2.1 66 66 N 15 24 30.01 1016 10 16.0934 0 0
8:55 am 08:55 Sunny 39 3.9 29 -1.7 67 67 N 17 28 30.02 1017 10 16.0934 0 0
9:15 am 09:15 Sunny 40 4.6 30 -1.1 67 67 N 16 26 30.01 1016 10 16.0934 0 0
9:35 am 09:35 Sunny 41 5.1 30 -0.9 66 66 N 16 26 30.02 1016 10 16.0934 0 0
9:55 am 09:55 Sunny 42 5.6 31 -0.6 65 65 N 21 33 30.01 1016 10 16.0934 0 0
10:15 am 10:15 Sunny 41 5 31 -0.6 67 67 N 18 30 30.02 1017 10 16.0934 0 0
10:35 am 10:35 Sunny 42 5.3 31 -0.5 67 67 N 20 31 30.03 1017 10 16.0934 0 0
10:55 am 10:55 Sunny 42 5.8 31 -0.5 64 64 N 22 35 30.03 1017 10 16.0934 0 0
11:15 am 11:15 Sunny 43 6 31 -0.6 63 63 N 20 31 30.03 1017 10 16.0934 0 0
11:35 am 11:35 Sunny 42 5.8 31 -0.7 63 63 N 22 35 30.04 1017 10 16.0934 0 0
11:55 am 11:55 Sunny 43 6.1 31 -0.6 63 63 N 23 37 30.03 1017 10 16.0934 0 0
12:15 pm 12:15 Sunny 43 6.1 31 -0.7 62 62 N 20 31 30.02 1017 10 16.0934 0 0
12:35 pm 12:35 Sunny 43 6.2 30 -0.9 61 61 N 21 33 30.01 1016 10 16.0934 0 0
12:55 pm 12:55 Sunny 44 6.4 30 -0.9 60 60 N 21 33 30 1016 10 16.0934 0 0
1:15 pm 13:15 Sunny 44 6.7 31 -0.7 60 60 N 18 30 30.01 1016 10 16.0934 0 0
1:35 pm 13:35 Sunny 44 6.7 30 -1 58 58 N 21 33 29.99 1016 10 16.0934 0 0
1:55 pm 13:55 Sunny 44 6.5 30 -1 59 59 NNE 20 31 29.96 1015 10 16.0934 0 0
2:15 pm 14:15 Sunny 44 6.6 31 -0.7 60 60 NNE 18 30 29.96 1015 10 16.0934 0 0
2:35 pm 14:35 Sunny 44 6.8 31 -0.7 59 59 NNE 18 30 29.97 1015 10 16.0934 0 0
2:55 pm 14:55 Sunny 44 6.5 31 -0.5 61 61 N 21 33 29.97 1015 10 16.0934 0 0
3:15 pm 15:15 Partly Cloudy 42 5.8 31 -0.6 64 64 NNE 20 31 29.99 1016 10 16.0934 0 0
3:35 pm 15:35 Partly Cloudy 42 5.6 31 -0.5 65 65 N 21 33 29.99 1016 10 16.0934 0 0
3:55 pm 15:55 Mostly Cloudy 42 5.3 31 -0.5 67 67 N 23 37 29.99 1015 10 16.0934 0 0
4:15 pm 16:15 Mostly Cloudy 40 4.7 31 -0.5 69 69 N 21 33 30.02 1017 10 16.0934 0 0
4:35 pm 16:35 Cloudy 40 4.6 31 -0.6 69 69 NNE 15 24 30.02 1017 10 16.0934 0 0
4:55 pm 16:55 Cloudy 40 4.5 31 -0.5 70 70 NNE 16 26 30.03 1017 10 16.0934 0 0
5:15 pm 17:15 Cloudy 39 4.1 31 -0.5 72 72 NNE 17 28 30.05 1017 10 16.0934 0 0
5:35 pm 17:35 Cloudy 39 4 31 -0.4 73 73 N 15 24 30.05 1018 10 16.0934 0 0
5:55 pm 17:55 Cloudy 39 4 31 -0.3 74 74 N 17 28 30.05 1018 10 16.0934 0 0
6:15 pm 18:15 Cloudy 39 3.8 31 -0.5 74 74 N 17 28 30.05 1018 10 16.0934 0 0
6:35 pm 18:35 Mostly Cloudy 38 3.5 31 -0.6 75 75 N 13 20 30.05 1018 10 16.0934 0 0
6:55 pm 18:55 Partly Cloudy 38 3.3 31 -0.7 75 75 N 13 20 30.04 1017 10 16.0934 0 0
7:15 pm 19:15 Clear 38 3.3 31 -0.8 75 75 NNE 13 20 30.03 1017 10 16.0934 0 0
7:35 pm 19:35 Clear 38 3.1 30 -1 75 75 NNE 13 20 30.05 1017 10 16.0934 0 0
7:55 pm 19:55 Partly Cloudy 38 3.1 30 -1.1 74 74 NNE 15 24 30.05 1017 10 16.0934 0 0
8:15 pm 20:15 Partly Cloudy 37 3 29 -1.4 73 73 NNE 16 26 30.06 1018 10 16.0934 0 0
8:35 pm 20:35 Partly Cloudy 37 2.7 29 -1.5 74 74 NNE 14 22 30.05 1018 10 16.0934 0 0
8:55 pm 20:55 Mostly Cloudy 37 2.5 29 -1.5 75 75 N 13 20 30.06 1018 10 16.0934 0 0
9:15 pm 21:15 Cloudy 37 2.5 29 -1.5 75 75 N 15 24 30.06 1018 10 16.0934 0 0
9:35 pm 21:35 Mostly Cloudy 36 2 29 -1.6 77 77 NNE 12 19 30.06 1018 10 16.0934 0 0
9:55 pm 21:55 Partly Cloudy 36 2 29 -1.6 77 77 NNE 15 24 30.06 1018 10 16.0934 0 0
10:15 pm 22:15 Partly Cloudy 35 1.8 29 -1.7 78 78 NNE 14 22 30.07 1018 10 16.0934 0 0
10:35 pm 22:35 Partly Cloudy 35 1.7 28 -2 77 77 NNE 13 20 30.07 1018 10 16.0934 0 0
10:55 pm 22:55 Mostly Cloudy 35 1.6 28 -2.1 77 77 NNE 14 22 30.07 1018 10 16.0934 0 0
11:15 pm 23:15 Mostly Cloudy 35 1.5 28 -2.2 77 77 NNE 13 20 30.07 1018 10 16.0934 0 0
11:35 pm 23:35 Partly Cloudy 34 1.3 28 -2.3 77 77 N 16 26 30.07 1018 10 16.0934 0 0
11:55 pm 23:55 Clear 34 1.2 28 -2.5 77 77 NNE 13 20 30.08 1018 10 16.0934 0 0

Powered by AerisWeather